カタログに戻る

ONEWEB-0693

運用中通信PO
NORAD 61601·PAYLOAD·🇬🇧 United Kingdom

打ち上げ Oct 20, 2024 から Vandenberg Space Force Base

Loading…

次のパス (今後24時間)

TLE

最新Source: CelesTrak SupGP

元期: Sep 14, 2026, 17:56 UTC

1 61601C 24188H   26257.74772407  .00001419  00000+0  36578-2 0  2579
2 61601  87.9189 348.1023 0002538  90.8379  21.2732 13.17648761    15

AllMySatでONEWEB-0693をリアルタイム追跡

Download on the App Store